Weather History for Chillicothe, MO

Change the Weather History Date:

Tuesday, February 5, 2013

  Actual Average (KIRK) Record (KIRK)
Temperature  
Mean Temperature 36 °F 27 °F  
Max Temperature 53 °F 37 °F 62 °F (1938)
Min Temperature 19 °F 18 °F -18 °F (1936)
Degree Days  
Heating Degree Days 29 38  
Month to date heating degree days 190  
Since 1 July heating degree days 3737  
Cooling Degree Days 0 0  
Month to date cooling degree days 0  
Year to date cooling degree days 0  
Moisture  
Dew Point 25 °F    
Average Humidity 70    
Maximum Humidity 85    
Minimum Humidity 41    
Precipitation  
Precipitation 0.00 in 0.05 in 0.93 in (2008)
Month to date precipitation 0.26  
Year to date precipitation 1.53  
Sea Level Pressure  
Sea Level Pressure 30.03 in    
Wind  
Wind Speed 4 mph (West)    
Max Wind Speed 14 mph    
Max Gust Speed 23 mph    
T = Trace of Precipitation, MM = Missing Value Source: NWS Daily Summary

Daily Weather History Graph

Daily Weather History Graph

Search for Another Location

Airport:

Trip Planner

Search our weather history database for the weather conditions in past years. The results will help you decide how hot, cold, wet, or windy it might be!

Date:

Astronomy

Feb. 05, 2013 Rise Set
Actual Time 7:18 AM CST 5:39 PM CST
Civil Twilight 6:49 AM CST 6:07 PM CST
Nautical Twilight 6:17 AM CST 6:39 PM CST
Astronomical Twilight 5:46 AM CST 7:10 PM CST
Moon 3:00 AM CST (2/5) 12:57 PM CST (2/5)
Length of Visible Light 11h 17m
Length of Day
10h 20m
Waning Crescent, 26% of the Moon is Illuminated
Feb 5
Waning Crescent
Feb 10
New
Feb 17
First Quarter
Feb 25
Full
Mar 4
Last Quarter

Hourly Weather History & Observations

Time (CST) Temp. Windchill Dew Point Humidity Pressure Visibility Wind Dir Wind Speed Gust Speed Precip Events Conditions
12:52 AM 19.9 °F - 16.0 °F 85% 30.01 in - Calm Calm - N/A   Unknown
1:52 AM 24.1 °F 19.7 °F 19.0 °F 81% 29.99 in - South 3.5 mph - N/A   Unknown
2:52 AM 25.0 °F - 19.9 °F 81% 29.98 in - Calm Calm - N/A   Unknown
3:52 AM 25.0 °F 20.7 °F 19.9 °F 81% 29.98 in - South 3.5 mph - N/A   Unknown
4:52 AM 26.1 °F 20.5 °F 21.0 °F 81% 29.96 in - South 4.6 mph - N/A   Unknown
5:52 AM 25.0 °F 18.1 °F 21.0 °F 85% 29.97 in - SSW 5.8 mph - N/A   Unknown
6:52 AM 26.1 °F 20.5 °F 21.9 °F 84% 29.96 in - SSW 4.6 mph - N/A   Unknown
7:52 AM 27.0 °F 20.5 °F 21.9 °F 81% 29.98 in - SSW 5.8 mph - N/A   Unknown
8:52 AM 28.9 °F 22.8 °F 24.1 °F 82% 29.97 in - SW 5.8 mph - N/A   Unknown
9:52 AM 34.0 °F 27.2 °F 26.1 °F 73% 29.98 in - WSW 8.1 mph - N/A   Unknown
10:52 AM 41.0 °F 35.2 °F 28.9 °F 62% 29.99 in - WNW 9.2 mph - N/A   Unknown
11:52 AM 46.0 °F 41.9 °F 30.0 °F 54% 29.99 in - NW 8.1 mph - N/A   Unknown
12:52 PM 51.1 °F - 32.0 °F 48% 29.99 in - NW 9.2 mph - N/A   Unknown
1:52 PM 52.0 °F - 30.9 °F 45% 29.99 in - NW 13.8 mph 23.0 mph N/A   Unknown
2:52 PM 53.1 °F - 30.9 °F 43% 30.00 in - NW 10.4 mph - N/A   Unknown
3:52 PM 52.0 °F - 28.9 °F 41% 30.03 in - NW 9.2 mph 19.6 mph N/A   Unknown
4:52 PM 50.0 °F - 28.0 °F 43% 30.05 in - NW 8.1 mph - N/A   Unknown
5:52 PM 44.1 °F 42.5 °F 28.0 °F 53% 30.07 in - NW 3.5 mph - N/A   Unknown
6:52 PM 37.0 °F - 27.0 °F 67% 30.09 in - Calm Calm - N/A   Unknown
7:52 PM 32.0 °F - 26.1 °F 79% 30.12 in - Calm Calm - N/A   Unknown
8:52 PM 32.0 °F - 26.1 °F 79% 30.13 in - Calm Calm - N/A   Unknown
9:52 PM 30.9 °F 27.5 °F 26.1 °F 82% 30.15 in - NNE 3.5 mph - N/A   Unknown
10:52 PM 32.0 °F - 26.1 °F 79% 30.15 in - Calm Calm - N/A   Unknown
11:52 PM 28.0 °F - 24.1 °F 85% 30.17 in - Calm Calm - N/A   Unknown